[[{"header":{"parameterUnit":"m.s-1","parameterCategory":1,"la1":30.2991,"la2":30.254,"lo1":-89.0895,"lo2":-89.0444,"dy":0.0017,"dx":0.0017,"nx":28,"ny":28,"refTime":"2024-05-04T21:00:00:Z","depth":0,"parameterNumber":2,"parameterNumberName":"U-component_of_WINDS"},"data":[0,0,0,0,0,0,0,0,0,0,0,0,0,0,0,0,0,0,0,0,0,0,0,0,0,0,0,0,0,0,0,0,0,0,0,0,0,0,0,0,0,0,0,0,0,0,0,0,0,0,0,0,0,0,0,0,0,0,-0.4495,-0.4494,0,-0.4395,-0.4394,-0.4393,-0.4328,-0.4328,-0.4327,-0.4327,-0.4227,-0.4225,-0.4222,0,0,0,0,0,0,0,0,0,0,0,0,0,-0.4631,-0.4629,-0.4495,-0.4493,-0.4492,-0.4395,-0.4394,-0.4393,-0.4328,-0.4328,-0.4327,-0.4327,-0.4228,-0.4225,-0.4222,0,0,0,0,0,0,0,0,0,0,0,0,0,-0.4556,-0.4628,-0.4495,-0.4448,-0.4443,-0.4396,-0.4394,-0.4392,-0.4328,-0.4328,-0.4327,-0.4326,-0.4228,-0.4225,-0.4222,-0.4213,0,0,-0.4211,-0.421,0,0,0,0,0,0,0,0,-0.456,-0.4551,-0.4456,-0.4451,-0.4446,-0.4373,-0.4405,-0.4332,-0.4328,-0.4372,-0.4327,-0.4326,-0.4276,-0.4269,-0.4252,-0.4209,-0.4204,-0.4211,-0.4209,-0.4207,-0.4207,0,0,0,0,0,0,0,-0.4565,-0.4555,-0.4455,-0.4455,-0.4448,-0.4433,-0.4422,-0.4391,-0.4329,-0.4368,-0.4363,-0.4352,-0.4273,-0.4255,-0.4249,-0.4203,-0.4211,-0.4208,-0.4206,-0.4205,-0.4149,-0.415,0,0,0,0,0,0,-0.4578,-0.4559,-0.4458,-0.4452,-0.4502,-0.4431,-0.4418,-0.4397,-0.4329,-0.4318,-0.4353,-0.435,-0.4261,-0.4253,-0.4245,-0.4231,-0.4208,-0.4204,-0.4202,-0.4149,-0.4149,-0.415,0,0,0,0,0,0,-0.4581,-0.4569,-0.4462,-0.4505,-0.449,-0.4429,-0.4406,-0.4396,-0.4377,-0.4317,-0.4306,-0.4346,-0.426,-0.425,-0.4222,-0.4227,-0.4203,-0.42,-0.4148,-0.4149,-0.415,-0.4203,0,0,0,0,0,0,-0.4585,-0.4571,-0.4566,-0.4505,-0.4488,-0.444,-0.4406,-0.4394,-0.4371,-0.4366,-0.4308,-0.4297,-0.4259,-0.4227,-0.4218,-0.4222,-0.4197,-0.4147,-0.4148,-0.4149,-0.4201,-0.4206,-0.421,0,0,0,0,0,-0.459,-0.4585,-0.4566,-0.4555,-0.4481,-0.4441,-0.4431,-0.4386,-0.4372,-0.4368,-0.4329,-0.4299,-0.4228,-0.4225,-0.4214,-0.4217,-0.4147,-0.4148,-0.4149,-0.4199,-0.4205,-0.421,0,0,0,0,0,0,-0.4649,-0.4576,-0.4554,-0.453,-0.4492,-0.443,-0.4423,-0.4394,-0.436,-0.4357,-0.4303,-0.4291,-0.4268,-0.424,-0.4238,-0.4206,-0.4184,-0.4183,-0.4225,-0.423,-0.4235,-0.4242,-0.4194,0,0,0,0,0,-0.4659,-0.4632,-0.457,-0.4555,-0.4537,-0.4483,-0.4464,-0.4433,-0.4392,-0.4376,-0.4335,-0.4297,-0.4266,-0.4247,-0.4215,-0.4197,-0.4184,-0.4193,-0.4198,-0.4202,-0.4202,-0.4191,-0.4195,-0.4154,-0.4154,-0.4154,0,0,-0.468,-0.4637,-0.4623,-0.4565,-0.4532,-0.4506,-0.447,-0.4444,-0.4424,-0.4372,-0.4343,-0.4312,-0.4266,-0.4243,-0.4231,-0.4219,-0.4211,-0.4204,-0.4208,-0.4205,-0.4193,-0.4197,-0.4201,-0.4155,-0.4155,-0.4155,0,0,-0.4704,-0.4669,-0.4652,-0.462,-0.457,-0.4535,-0.4531,-0.4474,-0.4451,-0.4421,-0.4382,-0.4358,-0.4305,-0.4274,-0.4252,-0.4266,-0.4238,-0.4258,-0.4282,-0.4272,-0.4276,-0.4278,-0.4284,-0.4287,-0.4258,-0.4258,-0.4258,0,-0.4736,-0.4695,-0.4647,-0.4623,-0.46,-0.4551,-0.4534,-0.4506,-0.4449,-0.4434,-0.4421,-0.4354,-0.432,-0.4289,-0.4293,-0.4276,-0.4271,-0.4264,-0.4279,-0.4281,-0.4283,-0.4288,-0.429,-0.4261,-0.426,-0.426,-0.426,0,-0.4737,-0.4709,-0.4701,-0.4647,-0.4623,-0.4603,-0.4553,-0.4534,-0.4506,-0.4473,-0.4443,-0.4401,-0.436,-0.435,-0.4322,-0.4316,-0.431,-0.4289,-0.4266,-0.429,-0.4294,-0.4295,-0.4265,-0.4264,-0.4263,-0.4262,0,0,-0.4794,-0.4715,-0.4713,-0.4689,-0.4631,-0.4609,-0.4588,-0.4547,-0.4532,-0.4495,-0.4476,-0.4434,-0.4414,-0.4388,-0.4356,-0.4348,-0.4363,-0.4327,-0.4326,-0.4336,-0.4355,-0.4372,-0.4375,-0.4344,-0.4344,-0.4344,-0.4359,0,-0.481,-0.4768,-0.4725,-0.4699,-0.4673,-0.4627,-0.4609,-0.4572,-0.4541,-0.4515,-0.448,-0.4451,-0.4426,-0.4411,-0.44,-0.4364,-0.4366,-0.4362,-0.4327,-0.4326,-0.434,-0.4376,-0.4393,-0.4409,-0.436,-0.436,-0.436,0,-0.4823,-0.4788,-0.4759,-0.4705,-0.4692,-0.4676,-0.4636,-0.4612,-0.457,-0.4548,-0.452,-0.4487,-0.4463,-0.4443,-0.441,-0.4408,-0.4391,-0.4371,-0.4371,-0.4366,-0.4345,-0.4373,-0.4413,-0.4416,-0.4362,-0.4362,-0.4362,0,-0.4868,-0.4814,-0.479,-0.477,-0.4706,-0.4696,-0.4669,-0.4627,-0.4606,-0.4571,-0.4557,-0.4521,-0.4501,-0.4474,-0.4432,-0.4421,-0.4404,-0.438,-0.4385,-0.4386,-0.4383,-0.4384,-0.4422,-0.4373,-0.4373,-0.4373,-0.4373,0,-0.4891,-0.4875,-0.4809,-0.4794,-0.4776,-0.4727,-0.4711,-0.468,-0.4643,-0.4622,-0.458,-0.4562,-0.4507,-0.4483,-0.445,-0.4428,-0.4419,-0.4401,-0.4393,-0.4405,-0.4407,-0.4393,-0.4391,-0.4373,-0.4373,-0.4373,-0.4373,0,-0.4938,-0.4894,-0.4864,-0.4807,-0.4792,-0.4781,-0.4732,-0.4716,-0.4683,-0.4657,-0.4648,-0.4596,-0.4565,-0.4521,-0.4476,-0.4454,-0.4437,-0.4423,-0.4451,-0.4446,-0.4454,-0.4454,-0.4484,-0.4486,-0.4436,-0.4436,-0.4437,0,-0.4955,-0.4942,-0.4883,-0.4866,-0.484,-0.4813,-0.4792,-0.4744,-0.4723,-0.4675,-0.4666,-0.4632,-0.4602,-0.4554,-0.4513,-0.4479,-0.4464,-0.4477,-0.4459,-0.4472,-0.4465,-0.4466,-0.4465,-0.4482,-0.4483,-0.4483,-0.4484,0,-0.499,-0.4969,-0.4939,-0.4902,-0.4877,-0.4846,-0.4813,-0.4801,-0.4747,-0.4726,-0.4693,-0.467,-0.4625,-0.4592,-0.4553,-0.4526,-0.4496,-0.449,-0.4489,-0.4502,-0.4519,-0.451,-0.4464,-0.4489,-0.4489,-0.4488,-0.4488,-0.4488,-0.5023,-0.501,-0.4967,-0.4935,-0.4905,-0.4875,-0.4858,-0.4822,-0.4794,-0.4754,-0.4728,-0.4697,-0.4656,-0.4601,-0.4575,-0.4551,-0.4539,-0.4538,-0.4538,-0.4538,-0.4543,-0.4523,-0.4544,-0.4544,-0.4544,-0.4543,-0.4543,0,-0.5057,-0.5027,-0.4998,-0.4953,-0.4929,-0.4903,-0.4865,-0.4846,-0.4819,-0.4784,-0.4756,-0.4719,-0.4687,-0.4644,-0.4609,-0.4598,-0.4584,-0.4591,-0.4591,-0.4585,-0.4556,-0.456,-0.4603,-0.4603,-0.4603,-0.4603,-0.4603,-0.4603,-0.5071,-0.5047,-0.5022,-0.4983,-0.4953,-0.4922,-0.4903,-0.4876,-0.4847,-0.4808,-0.4781,-0.4753,-0.4715,-0.4677,-0.4647,-0.4635,-0.4624,-0.4636,-0.462,-0.4593,-0.4587,-0.4582,-0.4586,-0.4634,-0.4634,-0.4651,-0.4652,-0.4652]},{"header":{"parameterUnit":"m.s-1","parameterCategory":1,"la1":30.2991,"la2":30.254,"lo1":-89.0895,"lo2":-89.0444,"dy":0.0017,"dx":0.0017,"nx":28,"ny":28,"refTime":"2024-05-04T21:00:00:Z","depth":0,"parameterNumber":3,"parameterNumberName":"V-component_of_WINDS"},"data":[0,0,0,0,0,0,0,0,0,0,0,0,0,0,0,0,0,0,0,0,0,0,0,0,0,0,0,0,0,0,0,0,0,0,0,0,0,0,0,0,0,0,0,0,0,0,0,0,0,0,0,0,0,0,0,0,0,0,0.996,0.996,0,0.9971,0.9971,0.9971,0.9979,0.9979,0.9979,0.9979,0.9989,0.9989,0.999,0,0,0,0,0,0,0,0,0,0,0,0,0,0.9944,0.9944,0.996,0.996,0.996,0.9971,0.9971,0.9971,0.9979,0.9979,0.9979,0.9979,0.9989,0.9989,0.999,0,0,0,0,0,0,0,0,0,0,0,0,0,0.9953,0.9944,0.996,0.9965,0.9966,0.9971,0.9971,0.9971,0.9979,0.9979,0.9979,0.9979,0.9989,0.9989,0.999,0.999,0,0,0.9991,0.9991,0,0,0,0,0,0,0,0,0.9952,0.9953,0.9964,0.9965,0.9966,0.9974,0.9969,0.9978,0.9979,0.9974,0.9979,0.9979,0.9984,0.9985,0.9987,0.9991,0.9991,0.9991,0.9991,0.9991,0.9991,0,0,0,0,0,0,0,0.9951,0.9953,0.9964,0.9964,0.9965,0.9967,0.9968,0.9971,0.9978,0.9974,0.9975,0.9976,0.9984,0.9986,0.9987,0.9991,0.9991,0.9991,0.9991,0.9991,0.9996,0.9996,0,0,0,0,0,0,0.995,0.9952,0.9964,0.9965,0.9959,0.9967,0.9968,0.9971,0.9978,0.9979,0.9976,0.9976,0.9986,0.9986,0.9987,0.9988,0.9991,0.9991,0.9992,0.9997,0.9996,0.9996,0,0,0,0,0,0,0.995,0.9951,0.9964,0.9959,0.996,0.9967,0.997,0.9971,0.9973,0.998,0.9981,0.9977,0.9986,0.9987,0.999,0.9989,0.9992,0.9992,0.9997,0.9997,0.9996,0.999,0,0,0,0,0,0,0.9949,0.9951,0.9952,0.9959,0.9961,0.9966,0.997,0.9971,0.9974,0.9974,0.9981,0.9982,0.9986,0.9989,0.999,0.9989,0.9992,0.9997,0.9997,0.9996,0.9991,0.999,0.999,0,0,0,0,0,0.9949,0.9949,0.9952,0.9953,0.9962,0.9966,0.9967,0.9972,0.9974,0.9974,0.9978,0.9981,0.9989,0.9989,0.999,0.999,0.9997,0.9997,0.9996,0.9991,0.999,0.999,0,0,0,0,0,0,0.9942,0.995,0.9953,0.9956,0.996,0.9967,0.9968,0.9971,0.9975,0.9975,0.9981,0.9982,0.9984,0.9987,0.9988,0.9991,0.9993,0.9993,0.9989,0.9988,0.9987,0.9987,0.9992,0,0,0,0,0,0.9941,0.9944,0.9951,0.9953,0.9955,0.9961,0.9963,0.9967,0.9971,0.9973,0.9977,0.9981,0.9984,0.9986,0.999,0.9991,0.9992,0.9991,0.9991,0.999,0.999,0.9991,0.999,0.9996,0.9996,0.9996,0,0,0.9939,0.9944,0.9945,0.9952,0.9956,0.9958,0.9963,0.9966,0.9968,0.9973,0.9976,0.998,0.9984,0.9986,0.9988,0.9989,0.9989,0.999,0.999,0.999,0.9991,0.999,0.999,0.9996,0.9996,0.9996,0,0,0.9936,0.994,0.9942,0.9946,0.9951,0.9955,0.9956,0.9962,0.9964,0.9968,0.9972,0.9974,0.998,0.9983,0.9985,0.9983,0.9986,0.9984,0.9981,0.9982,0.9981,0.9981,0.998,0.9979,0.9984,0.9984,0.9984,0,0.9932,0.9937,0.9943,0.9945,0.9948,0.9953,0.9955,0.9958,0.9964,0.9966,0.9968,0.9974,0.9978,0.9981,0.998,0.9982,0.9982,0.9983,0.9981,0.9981,0.998,0.9979,0.9979,0.9984,0.9984,0.9984,0.9984,0,0.9932,0.9935,0.9936,0.9942,0.9945,0.9947,0.9953,0.9955,0.9958,0.9961,0.9964,0.9969,0.9973,0.9974,0.9977,0.9977,0.9977,0.998,0.9982,0.9979,0.9979,0.9978,0.9983,0.9983,0.9983,0.9983,0,0,0.9925,0.9934,0.9935,0.9937,0.9944,0.9946,0.9948,0.9953,0.9954,0.9958,0.996,0.9964,0.9966,0.9969,0.9972,0.9973,0.9971,0.9975,0.9975,0.9974,0.9971,0.9969,0.9968,0.9973,0.9973,0.9973,0.997,0,0.9923,0.9928,0.9933,0.9936,0.9938,0.9944,0.9945,0.9949,0.9953,0.9955,0.9959,0.9962,0.9965,0.9966,0.9967,0.9971,0.997,0.9971,0.9974,0.9974,0.9972,0.9968,0.9966,0.9963,0.997,0.997,0.997,0,0.9922,0.9926,0.9929,0.9935,0.9936,0.9938,0.9942,0.9944,0.9949,0.9951,0.9954,0.9957,0.996,0.9962,0.9965,0.9965,0.9967,0.9969,0.9969,0.9969,0.9972,0.9968,0.9962,0.9962,0.9969,0.9969,0.9969,0,0.9916,0.9922,0.9925,0.9927,0.9934,0.9935,0.9938,0.9942,0.9944,0.9948,0.9949,0.9953,0.9955,0.9957,0.9962,0.9963,0.9964,0.9967,0.9966,0.9965,0.9965,0.9965,0.996,0.9967,0.9967,0.9967,0.9967,0,0.9913,0.9915,0.9922,0.9924,0.9926,0.9931,0.9933,0.9936,0.994,0.9942,0.9946,0.9948,0.9954,0.9956,0.9959,0.9961,0.9962,0.9963,0.9964,0.9963,0.9963,0.9964,0.9964,0.9967,0.9967,0.9967,0.9967,0,0.9908,0.9913,0.9916,0.9922,0.9924,0.9925,0.993,0.9931,0.9935,0.9937,0.9938,0.9944,0.9947,0.9951,0.9955,0.9957,0.9958,0.996,0.9957,0.9957,0.9956,0.9956,0.9951,0.995,0.9958,0.9958,0.9958,0,0.9905,0.9907,0.9913,0.9915,0.9918,0.9921,0.9923,0.9928,0.993,0.9935,0.9936,0.9939,0.9942,0.9946,0.995,0.9953,0.9955,0.9953,0.9955,0.9954,0.9954,0.9954,0.9954,0.9952,0.9952,0.9952,0.9952,0,0.9901,0.9903,0.9906,0.991,0.9913,0.9916,0.992,0.9921,0.9927,0.9929,0.9932,0.9934,0.9938,0.9941,0.9945,0.9947,0.995,0.9951,0.9951,0.9949,0.9947,0.9948,0.9955,0.9951,0.9951,0.9951,0.9951,0.9951,0.9897,0.9898,0.9903,0.9906,0.9909,0.9912,0.9914,0.9917,0.992,0.9924,0.9927,0.993,0.9934,0.9939,0.9941,0.9943,0.9945,0.9944,0.9944,0.9944,0.9943,0.9947,0.9944,0.9944,0.9944,0.9944,0.9944,0,0.9892,0.9895,0.9898,0.9903,0.9905,0.9908,0.9912,0.9914,0.9916,0.992,0.9923,0.9926,0.9929,0.9933,0.9936,0.9937,0.9938,0.9937,0.9937,0.9938,0.9942,0.9942,0.9936,0.9936,0.9936,0.9936,0.9936,0.9936,0.989,0.9892,0.9895,0.9899,0.9902,0.9905,0.9907,0.9909,0.9912,0.9916,0.9918,0.9921,0.9925,0.9928,0.993,0.9932,0.9932,0.9931,0.9933,0.9937,0.9937,0.9938,0.9938,0.9931,0.9931,0.9928,0.9928,0.9928]}]]